Location: Newark
(10.9667°N, 4.8167°W)
Time: 21:11:03
(UTC+00:00)

Hubble Space Telescope - Visible Passes

Search period start: 10 December 2019 00:00
Search period end: 20 December 2019 00:00
Orbit: 536 x 540 km, 28.5° (Epoch: 10 December)

Date Brightness Start Highest point End Pass type
(mag) Time Alt. Az. Time Alt. Az. Time Alt. Az.
10 Dec 3.1 04:14:24 20° SE 04:14:24 20° SE 04:17:15 10° E visible
10 Dec 0.7 05:51:08 10° WSW 05:55:15 68° NNW 05:59:22 10° NE visible
11 Dec 3.4 04:05:37 18° ESE 04:05:37 18° ESE 04:07:07 10° E visible
11 Dec 1.0 05:41:02 12° W 05:44:41 48° NNW 05:48:41 10° NE visible
12 Dec 3.9 03:56:40 11° E 03:56:40 11° E 03:56:50 10° E visible
12 Dec 1.4 05:32:04 22° WNW 05:34:07 36° NNW 05:37:57 10° NE visible
13 Dec 1.8 05:22:55 26° NW 05:23:35 27° NNW 05:27:09 10° NE visible
14 Dec 2.3 05:13:35 21° N 05:13:35 21° N 05:16:18 10° NNE visible
15 Dec 2.9 05:04:06 15° N 05:04:06 15° N 05:05:22 10° NNE visible
